#timestamp,LO_Frequency,Hit,StdDev 
1544274015.7,286047011.3,N
1544274035.6,286047011.6,N
1544274055.4,286047009.0,N
1544274075.2,286047005.1,N
1544274095.1,286047001.8,N
1544274096.0,286047001.8,N
1544274115.8,286047001.7,N
1544274135.7,286046999.7,N
1544274155.5,286047001.1,N
1544274175.3,286046997.6,N
1544274195.2,286046995.4,N
1544274215.0,286046997.7,N
1544274215.9,286046997.7,N
1544274235.7,286046999.0,N
1544274255.6,286047002.6,N
1544274275.4,286047000.8,N
1544274295.3,286046998.7,N
1544274315.1,286046998.3,N
1544274316.0,286046998.3,N
1544274335.8,286046998.2,N
1544274355.7,286046997.4,N
1544274375.5,286046993.8,N
1544274395.3,286046994.4,N
1544274415.2,286046992.9,N
1544274435.0,286046991.4,N
1544274435.9,286046991.4,N
1544274455.8,286046991.4,N
1544274475.6,286046993.1,N
1544274495.4,286046994.6,N
1544274515.3,286046997.3,N
1544274535.1,286046998.2,N
1544274555.8,286046999.9,N
1544274575.7,286047002.3,N
1544274595.5,286047001.2,N
1544274615.4,286046996.5,N
1544274635.2,286047000.6,N
1544274655.0,286047003.9,N
1544274655.9,286047003.9,N
1544274675.8,286047003.0,N
1544274695.6,286047006.5,N
1544274715.5,286047011.0,N
1544274735.3,286047017.2,Y
1544274755.1,286047017.6,P
1544274775.9,286047020.1,N
1544274795.7,286047020.7,N
1544274815.6,286047021.7,N
1544274835.4,286047021.4,N
1544274855.2,286047019.8,N
1544274875.1,286047019.2,N
1544274876.0,286047019.2,N
1544274895.8,286047020.2,N
1544274915.6,286047020.4,Y
1544274935.5,286047004.2,P
1544274955.3,286047003.0,N
1544274975.2,286047005.5,N
1544274995.9,286047008.3,N
1544275015.7,286047011.5,N
1544275035.6,286047013.9,N
1544275055.4,286047012.5,N
1544275075.2,286047014.4,N
1544275095.1,286047016.6,Y
1544275096.0,286047016.6,P
1544275115.8,286047005.9,N
1544275135.7,286047000.3,N
1544275155.5,286046994.9,N
1544275175.3,286046995.1,N
1544275195.2,286046993.1,N
1544275215.0,286046985.3,N
1544275215.9,286046985.3,N
1544275235.8,286046983.7,N
1544275255.6,286046983.5,N
1544275275.4,286046977.4,N
1544275295.3,286046972.5,N
1544275315.1,286046969.7,N
1544275335.8,286046969.7,N
1544275355.7,286046973.3,N
1544275375.5,286046973.5,N
1544275395.4,286046974.3,N
1544275415.2,286046977.2,N
1544275435.0,286046976.9,N
1544275435.9,286046976.9,N
1544275455.8,286046974.7,N
1544275475.6,286046976.6,N
1544275495.4,286046977.9,N
1544275515.3,286046975.7,N
1544275535.1,286046979.6,N
1544275555.9,286046985.9,N
1544275575.7,286046987.2,N
1544275595.5,286046988.8,N
1544275615.4,286046990.8,N
1544275635.2,286046994.6,N
1544275655.0,286046995.8,N
1544275655.9,286046995.8,N
1544275675.8,286047000.7,N
1544275695.6,286047003.8,N
1544275715.4,286047004.6,N
1544275735.3,286047000.9,N
1544275755.1,286047004.2,N
1544275775.9,286046998.7,N
1544275795.7,286047002.1,N
1544275815.5,286047007.3,N
1544275835.4,286047006.6,N
1544275855.2,286047006.2,N
1544275875.0,286047009.0,N
1544275876.0,286047009.0,N
1544275895.8,286047011.1,N
1544275915.6,286047010.9,N
1544275935.5,286047010.8,N
1544275955.3,286047007.2,N
1544275975.1,286047007.3,N
1544275995.9,286047010.4,N
1544276015.7,286047007.7,N
1544276035.5,286047009.3,N
1544276055.4,286047012.1,N
1544276075.2,286047012.9,N
1544276095.1,286047013.3,N
1544276096.0,286047013.3,N
1544276115.8,286047011.4,N
1544276135.6,286047009.4,N
1544276155.5,286047009.6,N
1544276175.3,286047007.2,N
1544276195.1,286047001.9,N
1544276215.9,286047003.1,N
1544276235.7,286047005.7,N
1544276255.6,286047003.9,N
1544276275.4,286047002.6,N
1544276295.2,286047003.7,N
1544276315.1,286047007.4,N
1544276316.0,286047007.4,N
1544276335.8,286047010.3,Y
1544276355.6,286047003.2,P
1544276375.5,286047000.3,N
1544276395.3,286047001.3,N
1544276415.2,286047000.8,N
1544276435.9,286047000.8,N
1544276455.7,286047001.4,N
1544276475.6,286047002.1,N
1544276495.4,286047000.6,N
1544276545.3,286047005.3,E
1544276555.2,286047001.7,N
1544276575.0,286046998.7,P
1544276575.9,286046998.7,N
1544276595.8,286046998.6,N
1544276615.6,286046996.9,N
1544276635.4,286046995.3,Y
1544276655.3,286046996.9,P
1544276675.1,286046998.2,N
1544276695.8,286047000.2,N
1544276715.7,286046999.7,N
1544276735.5,286047000.9,N
1544276755.4,286046995.3,Y
1544276775.2,286046996.0,P
1544276795.0,286046990.4,P
1544276795.9,286046990.4,N
1544276815.8,286046988.3,Y
1544276835.6,286046991.6,P
1544276855.5,286046989.9,P
1544276875.3,286046988.5,P
1544276895.1,286046989.2,Y
1544276915.9,286046995.1,P
1544276935.7,286046993.5,P
1544276955.6,286046996.6,N
1544276975.4,286047001.0,N
1544276995.2,286047002.6,N
1544277015.1,286047006.0,N
1544277016.0,286047006.0,N
1544277035.8,286047004.5,N
1544277055.6,286047003.5,N
1544277075.5,286047002.8,N
1544277095.3,286047004.3,N
1544277115.2,286047002.1,N
1544277135.9,286047000.0,N
1544277155.7,286046997.2,N
1544277175.6,286047002.6,N
1544277195.4,286047003.7,N
1544277215.2,286047002.8,N
1544277235.1,286047001.7,N
1544277236.0,286047001.7,N
1544277255.8,286047005.0,N
1544277275.7,286047006.6,N
1544277295.5,286047008.3,N
1544277315.3,286047012.1,N
1544277335.2,286047013.0,N
1544277355.9,286047011.6,N
1544277375.7,286047010.1,N
1544277395.6,286047009.0,N
1544277415.4,286047006.5,N
1544277435.2,286047004.1,N
1544277455.1,286046999.9,N
1544277456.0,286046999.9,N
1544277475.8,286046999.5,N
1544277495.7,286046993.5,N
1544277515.5,286046990.9,N
1544277535.3,286046986.6,N
1544277555.2,286046987.7,N
1544277575.0,286046987.5,N
1544277575.9,286046987.5,N
1544277595.8,286046986.4,N
